Miscellaneous Local Product
Issued by NWS Hastings, NE

Home | Current Version | Previous Version | Text Only | Print | Product List | Glossary Off
Versions: 1 2 3 4 5 6 7 8 9 10 11 12 13 14 15 16 17 18 19 20 21 22 23 24 25 26 27 28 29 30 31 32 33 34 35 36 37 38 39 40 41 42 43 44 45 46 47 48 49 50

000
AXUS43 KGID 091402
MISGRI

GID CWA HOURLY WEATHER ROUNDUP
NATIONAL WEATHER SERVICE HASTINGS NE
900 AM CDT WED JUL 09 2014

NOTE: "FAIR" INDICATES FEW OR NO CLOUDS BELOW 12,000 FEET WITH NO
SIGNIFICANT WEATHER AND/OR OBSTRUCTIONS TO VISIBILITY.

...SOUTH CENTRAL NEBRASKA...

CITY           SKY/WX    TMP DP  RH WIND       PRES   REMARKS
GRAND ISLAND   SUNNY     69  57  65 SE3       30.11R
HASTINGS       SUNNY     71  53  52 SE3       30.11R
KEARNEY        SUNNY     70  57  64 SE5       30.12R
ORD            PTSUNNY   64  57  78 CALM      30.10R
YORK           SUNNY     68  61  77 S3        30.11R
AURORA         MOSUNNY   69  60  73 S5        30.11R
LEXINGTON      SUNNY     72  59  63 SE8       30.11R
HOLDREGE       SUNNY     72  57  59 S8        30.11R
HEBRON         SUNNY     70  60  69 CALM      30.11R

...NEBRASKA PANHANDLE...

CITY           SKY/WX    TMP DP  RH WIND       PRES   REMARKS
CHADRON        PTSUNNY   69  51  52 CALM      30.04S
ALLIANCE       MOSUNNY   67  54  63 SE12G24   30.08R
SCOTTSBLUFF    LGT RAIN  60  59  96 W3        30.11R
SIDNEY         MOSUNNY   70  56  61 S10       30.07S

...WESTERN AND NORTH CENTRAL NEBRASKA...

CITY           SKY/WX    TMP DP  RH WIND       PRES   REMARKS
VALENTINE      PTSUNNY   63  59  87 NE3       30.09R
AINSWORTH      MOSUNNY   66  58  76 S5        30.10S
ONEILL         PTSUNNY   66  57  71 S5        30.10R
BROKEN BOW     MOSUNNY   70  57  63 S5        30.12R
IMPERIAL       SUNNY     72  55  55 S15       30.08R
NORTH PLATTE   SUNNY     66  57  72 E10       30.09S
MCCOOK         SUNNY     71  57  61 SE9       30.09F

...EASTERN NEBRASKA...

CITY           SKY/WX    TMP DP  RH WIND       PRES   REMARKS
NORFOLK        MOSUNNY   69  58  67 CALM      30.09R
SO SIOUX CITY  SUNNY     65  61  87 CALM      30.06R
TEKAMAH        SUNNY     67  60  78 CALM      30.07R
ALBION         MOSUNNY   65  57  74 CALM      30.10S
OMAHA EPPLEY   SUNNY     69  60  73 N3        30.07S
OFFUTT AFB     SUNNY     69  65  88 CALM      30.07R
MILLARD        SUNNY     70  60  72 CALM      30.07R
LINCOLN        SUNNY     69  58  67 S3        30.10R
NEBRASKA CITY  SUNNY     68  60  74 CALM      30.09R
BEATRICE       SUNNY     66  60  79 CALM      30.10R
FALLS CITY     SUNNY     69  62  78 CALM      30.08R

...NORTHERN KANSAS...

CITY           SKY/WX    TMP DP  RH WIND       PRES   REMARKS
GOODLAND       SUNNY     70  55  59 S18       30.11S
HILL CITY      MOSUNNY   72  59  63 S8        30.10S
NORTON         MOSUNNY   73  52  46 SE8       30.10R
PHILLIPSBURG   SUNNY     73  57  56 SE7       30.11R
SMITH CENTER   SUNNY     73  57  56 S10       30.11S
BELOIT         SUNNY     64  55  72 CALM      30.10R
HAYS           SUNNY     72  57  60 SE7       30.11S
RUSSELL        SUNNY     75  59  57 SE10      30.10R
CONCORDIA      SUNNY     70  62  76 CALM      30.11R
SALINA         SUNNY     74  63  68 S7        30.10R
TOPEKA         SUNNY     72  63  73 CALM      30.09R



USA.gov is the U.S. government's official web portal to all federal, state and local government web resources and services.